Regional Weather Roundup
Issued by NWS

Home | Current Version | Previous Version | Graphics & Text | Print | Product List | Glossary On
Versions: 1 2 3 4 5 6 7 8 9 10 11 12 13 14 15 16 17 18 19 20 21 22 23 24 25 26 27 28 29 30 31 32 33 34 35 36 37 38 39 40 41 42 43 44 45 46 47 48 49 50
886
ASUS43 KMPX 180910
RWRMN
WEATHER ROUNDUP FOR MINNESOTA
NATIONAL WEATHER SERVICE TWIN CITIES/CHANHASSEN MN
400 AM CDT WED OCT 18 2017


NOTE: "FAIR" INDICATES FEW OR NO CLOUDS BELOW 12,000 FEET WITH NO
SIGNIFICANT WEATHER AND/OR OBSTRUCTIONS TO VISIBILITY. N/A MEANS
CURRENT SKY AND/OR WEATHER CONDITIONS ARE NOT AVAILABLE.

MNZ060>063-068>070-181000-
   Twin Cities Metro

CITY           SKY/WX    TMP DP  RH WIND       PRES   REMARKS
TWIN CITIES    CLEAR     56  46  69 S3        29.86F
ST PAUL        CLEAR     51  46  83 SE7       29.87F
CRYSTAL        CLEAR     53  42  66 S8        29.83F
BLAINE         CLEAR     55  45  67 S8        29.84F
LAKEVILLE      CLEAR     48  43  81 CALM      29.87F
EDEN PRAIRIE   CLEAR     54  45  71 S9        29.84F
SOUTH ST PAUL  CLEAR     51  44  78 SE3       29.86F
LAKE ELMO      FAIR      50  45  81 S6        29.87F
$$
MNZ001>005-007-008-013>017-022>024-027-028-181000-
   Northwest Minnesota

CITY           SKY/WX    TMP DP  RH WIND       PRES   REMARKS
BEMIDJI        CLOUDY    54  38  55 S8        29.66F
HALLOCK        CLOUDY    52  36  54 S17       29.44F
ROSEAU         PTCLDY    57  43  58 S16       29.49F
WARROAD        CLOUDY    61  43  51 SW16G23   29.49F
THIEF RVR FALL CLOUDY    59  39  47 S21G28    29.56F
CROOKSTON      CLOUDY    54  41  62 S20       29.55F
FOSSTON        CLOUDY    57  37  47 S18G24    29.62F
DETROIT LAKES  CLOUDY    63  37  39 SW14G24   29.68F
MOORHEAD       CLOUDY    48  41  76 S14       29.66F
PARK RAPIDS    CLOUDY    47  39  74 S6        29.70F
MAHNOMEN       FAIR      54  40  59 S13       29.63F
$$
MNZ006-009>011-018-025>026-181000-
   North Central Minnesota

CITY           SKY/WX    TMP DP  RH WIND       PRES   REMARKS
BAUDETTE       CLOUDY    55  41  59 S12       29.55F
FLAG ISLAND    CLOUDY    57  41  54 S13       29.46F
INTL FALLS     CLOUDY    59  38  45 S15G25    29.60F
WASKISH        CLOUDY    61  39  44 S9        29.59F
BIG FORK       CLEAR     54  39  58 S9        29.68F
LONGVILLE      CLEAR     55  39  54 S6        29.73S
GRAND RAPIDS   CLEAR     51  39  63 S10       29.75F
CRANE LAKE     CLEAR     54  37  54 S6        29.68F
ORR            CLEAR     54  36  50 S7        29.66F
COOK           CLEAR     55  39  54 S7        29.71F
WALKER         FAIR      55  38  54 SW10G16   29.69F
$$
MNZ012-019>021-037-181000-
   Northeast Minnesota

CITY           SKY/WX    TMP DP  RH WIND       PRES   REMARKS
DULUTH         CLEAR     53  42  66 SW14      29.79S
ELY            CLEAR     57  37  47 SW10G16   29.73F
HIBBING        CLEAR     37  35  92 CALM      29.74F
EVELETH        CLEAR     39  39 100 CALM      29.76F
DULUTH HARBOR  CLEAR     55  46  71 SW7       29.79F
TWO HARBORS    CLEAR     46  41  81 W5        29.77S
GRAND MARAIS     N/A     43  42  97 N3        29.78F
G MARAIS ARPRT CLEAR     48  39  71 S6        29.80S
$$
MNZ029>031-032-039>041-046>048-054>057-064-181000-
   West Central Minnesota

CITY           SKY/WX    TMP DP  RH WIND       PRES   REMARKS
FERGUS FALLS   CLOUDY    52  43  71 S8        29.72R
WHEATON        CLOUDY    54  39  58 S8        29.71S
MORRIS         CLOUDY    48  43  81 S9        29.72F
ALEXANDRIA     CLOUDY    57  43  59 S15G22    29.76F
ELBOW LAKE     FAIR      51  43  73 S13       29.72S
WADENA         PTCLDY    55  41  58 S9        29.72S
GLENWOOD       CLOUDY    54  45  71 S12       29.77S
APPLETON       CLOUDY    55  43  62 S8        29.73F
BENSON         CLOUDY    50  43  76 S8        29.77F
ORTONVILLE     CLOUDY    52  41  66 NE6       29.71F
MADISON        CLOUDY    61  45  55 S7        29.74F
WILLMAR        FAIR      54  45  71 S3        29.80F
$$
MNZ033>034-036-042>043-049>051-058-059-181000-
   Central Minnesota

CITY           SKY/WX    TMP DP  RH WIND       PRES   REMARKS
ST CLOUD       CLEAR     48  43  82 SE8       29.80F
SAUK CENTRE    FAIR      53  43  68 S9        29.78S
PAYNESVILLE    CLEAR     55  45  67 S8        29.79F
AITKIN         CLEAR     55  39  54 S8        29.75S
PINE RIVER     CLEAR     46  37  71 S3        29.77F
BRAINERD       CLEAR     52  40  63 S9        29.77S
STAPLES        CLOUDY    52  39  62 S7        29.74S
LONG PRAIRIE   FAIR      52  41  66 SE8       29.77F
LITTLE FALLS   CLEAR     52  36  54 S6        29.78F
LITCHFIELD     CLEAR     52  46  82 S3        29.81F
BUFFALO        CLEAR     55  44  66 S8        29.84S
MAPLE LAKE     CLEAR     53  47  78 S5        29.83S
HUTCHINSON     CLOUDY    47  44  87 CALM      29.84S
$$
MNZ037-044-045-052-053-181000-
   East Central Minnesota

CITY           SKY/WX    TMP DP  RH WIND       PRES   REMARKS
PRINCETON      CLEAR     54  45  71 S7        29.82F
MORA           CLEAR     45  39  81 CALM      29.83F
CAMBRIDGE      CLEAR     54  43  66 S7        29.83S
RUSH CITY      MOCLDY    50  43  77 S5        29.83S
MOOSE LAKE     CLEAR     50  41  71 SW3       29.79S
HINCKLEY       FAIR      45  43  93 S3        29.82F
CLOQUET        CLEAR     52  39  62 S8        29.79S
MCGREGOR       CLEAR     52  41  66 S6        29.77F
$$
MNZ071>073-080-081-089-090-097-098-181000-
   Southwest Minnesota

CITY           SKY/WX    TMP DP  RH WIND       PRES   REMARKS
MONTEVIDEO     CLOUDY    52  45  76 SW6       29.76F
GRANITE FALLS  CLEAR     52  45  76 S8        29.78F
CANBY          CLOUDY    61  43  51 SW12G22   29.75F
MARSHALL       CLEAR     58  44  60 S17       29.77F
REDWOOD FALLS  CLEAR     52  43  71 S10       29.81F
OLIVIA         CLEAR     52  43  71 S9        29.80F
PIPESTONE      CLEAR     52  43  71 S7        29.82S
WORTHINGTON    CLEAR     52  44  74 S10       29.86F
JACKSON        CLEAR     46  43  87 S8        29.87F
TRACY          CLEAR     58  46  64 S12       29.81F
SLAYTON        CLEAR     54  36  51 S10       29.83F
$$
MNZ065>067-074>077-082>085-091>093-181000-
   South Central Minnesota

CITY           SKY/WX    TMP DP  RH WIND       PRES   REMARKS
MANKATO        CLEAR     49  44  83 S9        29.87F
NEW ULM          N/A     48  43  81 S8        29.84S
ST JAMES       CLEAR     48  45  87 S10       29.85F
FAIRMONT       CLEAR     46  43  89 S7        29.88F
GLENCOE        CLEAR     52  46  79 S5        29.83F
FARIBAULT      CLEAR     48  45  87 S7        29.89S
OWATONNA       CLEAR     52  45  76 S14       29.89F
WASECA         CLEAR     52  45  76 S7        29.90F
ALBERT LEA     CLEAR     55  46  71 S8        29.91F
$$
MNZ078>079-086>088-094>096-181000-
   Southeast Minnesota

CITY           SKY/WX    TMP DP  RH WIND       PRES   REMARKS
ROCHESTER      CLEAR     49  44  83 S13       29.93F
RED WING       CLEAR     54  43  66 CALM      29.89F
STANTON        CLEAR     53  45  74 S7        29.86F
DODGE CENTER   CLEAR     50  43  76 S10       29.91F
WINONA         CLEAR     54  43  66 SE3       29.94F
AUSTIN         CLEAR     48  45  87 S8        29.93F
PRESTON        CLEAR     50  43  77 S12       29.95F
$$
ABBREVIATIONS USED IN REMARKS
   TC - TEMPERATURES IN CELSIUS
  WCI - WIND CHILL INDEX
   HX - HEAT INDEX
  VSB - VISIBILITY
$$




USA.gov is the U.S. government's official web portal to all federal, state and local government web resources and services.